Meridian, MS

8:13 AM CST on December 08, 2019 (GMT -0600)
Key

Weather History for KMEI - October, 2019

Change the Weather History Date:

Friday, October 25, 2019

  Actual Average Record
Temperature  
Mean Temperature 64 °F 61 °F  
Max Temperature 68 °F 75 °F 87 °F (2016)
Min Temperature 60 °F 48 °F 29 °F (1965)
Degree Days  
Heating Degree Days 1 6  
Month to date heating degree days 45 78  
Since 1 July heating degree days 45 85  
Cooling Degree Days 0 2  
Month to date cooling degree days 203 82  
Year to date cooling degree days 2835 2005  
Growing Degree Days 14 (Base 50)    
Moisture  
Dew Point 60 °F    
Average Humidity 90    
Maximum Humidity 97    
Minimum Humidity 63    
Precipitation  
Precipitation 4.77 in 0.12 in 2.39 in (1977)
Month to date precipitation 9.70 2.99  
Year to date precipitation 52.88 45.38  
Sea Level Pressure  
Sea Level Pressure 29.99 in    
Wind  
Wind Speed 6 mph ()    
Max Wind Speed 13 mph    
Max Gust Speed 16 mph    
Visibility 4.9 miles    
Events Rain , Thunderstorm    
T = Trace of Precipitation, MM = Missing Value Source: Averaged Metar Reports

Daily Weather History Graph

Daily Weather History Graph

Search for Another Location

Airport or City:

Astronomy

Oct. 25, 2019 Rise Set
Actual Time 7:06 AM CDT 6:11 PM CDT
Civil Twilight 6:41 AM CDT 6:36 PM CDT
Nautical Twilight 6:12 AM CDT 7:05 PM CDT
Astronomical Twilight 5:43 AM CDT 7:33 PM CDT
Moon 4:04 AM CDT (10/25) 4:59 PM CDT (10/25)
Length of Visible Light 11h 55m
Length of Day
11h 05m
Waning Crescent, 9% of the Moon is Illuminated
Oct 25
Waning Crescent
Oct 27
New
Nov 4
First Quarter
Nov 12
Full
Nov 19
Last Quarter

Hourly Weather History & Observations

Time (CDT) Temp. Dew Point Humidity Pressure Visibility Wind Dir Wind Speed Gust Speed Precip Events Conditions
12:58 AM 64.9 °F 52.0 °F 63% 30.09 in 10.0 mi North 4.6 mph - N/A   Overcast
1:58 AM 64.0 °F 53.1 °F 67% 30.09 in 10.0 mi North 5.8 mph - N/A   Overcast
2:58 AM 62.1 °F 55.0 °F 78% 30.07 in 10.0 mi NE 4.6 mph - 0.01 in   Overcast
4:05 AM 61.0 °F 57.0 °F 87% 30.06 in 10.0 mi NNE 6.9 mph - 0.00 in Rain Light Rain
4:30 AM 61.0 °F 57.0 °F 87% 30.07 in 2.0 mi NNW 4.6 mph - 0.10 in Rain Heavy Rain
4:38 AM 60.1 °F 57.9 °F 93% 30.08 in 3.0 mi NNE 3.5 mph - 0.17 in Rain Heavy Rain
4:43 AM 61.0 °F 57.9 °F 90% 30.08 in 1.8 mi Calm Calm - 0.21 in Rain Heavy Rain
4:58 AM 61.0 °F 59.0 °F 93% 30.06 in 1.8 mi ENE 5.8 mph - 0.68 in Rain Heavy Rain
5:00 AM 61.0 °F 59.0 °F 93% 30.07 in 3.0 mi ENE 4.6 mph - 0.01 in Rain Rain
5:58 AM 62.1 °F 59.0 °F 90% 30.06 in 4.0 mi North 9.2 mph - 0.17 in Rain Heavy Rain
6:12 AM 62.1 °F 60.1 °F 93% 30.07 in 2.5 mi NNE 6.9 mph - 0.16 in Rain Rain
6:18 AM 62.1 °F 60.1 °F 93% 30.07 in 9.0 mi North 5.8 mph - 0.16 in Rain Light Rain
6:25 AM 62.1 °F 60.1 °F 93% 30.06 in 10.0 mi North 4.6 mph - 0.16 in Rain Light Rain
6:58 AM 63.0 °F 60.1 °F 90% 30.07 in 10.0 mi NE 5.8 mph - 0.16 in   Overcast
7:58 AM 64.0 °F 61.0 °F 90% 30.07 in 10.0 mi NNE 4.6 mph - 0.00 in Rain Light Rain
8:38 AM 63.0 °F 61.0 °F 93% 30.07 in 4.0 mi NNE 10.4 mph - 0.06 in Rain Light Rain
8:58 AM 63.0 °F 60.1 °F 90% 30.06 in 10.0 mi NNE 9.2 mph - 0.06 in   Overcast
9:50 AM 63.0 °F 61.0 °F 93% 30.07 in 4.0 mi Variable 4.6 mph - 0.05 in Rain , Thunderstorm Light Rain
9:58 AM 64.0 °F 61.0 °F 90% 30.05 in 3.0 mi NE 11.5 mph - 0.05 in Rain , Thunderstorm Light Rain
10:07 AM 64.0 °F 61.0 °F 90% 30.06 in 2.5 mi NNE 4.6 mph - 0.00 in Rain Light Rain
10:40 AM 64.0 °F 61.0 °F 90% 30.06 in 1.8 mi NNE 9.2 mph - 0.01 in Rain Light Rain
10:58 AM 64.0 °F 62.1 °F 93% 30.04 in 2.0 mi NNE 10.4 mph - 0.01 in   Overcast
11:21 AM 64.0 °F 62.1 °F 93% 30.04 in 2.0 mi NNE 9.2 mph - N/A   Overcast
11:50 AM 64.0 °F 61.0 °F 90% 30.04 in 3.0 mi NNE 11.5 mph - 0.00 in Rain Light Rain
11:58 AM 64.0 °F 61.0 °F 90% 30.02 in 4.0 mi NNE 8.1 mph - 0.00 in Rain Light Rain
12:52 PM 64.4 °F 60.8 °F 88% 30.03 in 2.0 mi ENE 5.8 mph - 0.12 in Rain Heavy Rain
12:53 PM 64.4 °F 60.8 °F 88% 30.03 in 1.8 mi ENE 6.9 mph - 0.13 in Rain Heavy Rain
12:58 PM 64.0 °F 62.1 °F 93% 30.01 in 1.2 mi ENE 6.9 mph - 0.25 in Rain Heavy Rain
1:02 PM 64.0 °F 62.1 °F 93% 30.02 in 2.0 mi NNE 4.6 mph - 0.01 in Rain Heavy Rain
1:31 PM 64.0 °F 61.0 °F 90% 29.99 in 3.0 mi NW 9.2 mph - 0.25 in Rain Heavy Rain
1:38 PM 64.0 °F 61.0 °F 90% 29.99 in 4.0 mi North 8.1 mph - 0.27 in Rain Heavy Rain
1:58 PM 64.0 °F 61.0 °F 90% 29.97 in 5.0 mi NNE 9.2 mph - 0.33 in Rain Heavy Rain
2:14 PM 64.0 °F 61.0 °F 90% 29.97 in 1.8 mi North 8.1 mph - 0.13 in Rain Heavy Rain
2:29 PM 63.0 °F 61.0 °F 93% 29.97 in 2.0 mi NNE 8.1 mph - 0.32 in Rain Heavy Rain
2:35 PM 64.0 °F 61.0 °F 90% 29.96 in 1.5 mi NNE 8.1 mph - 0.34 in Rain Heavy Rain
2:58 PM 64.0 °F 61.0 °F 90% 29.96 in 1.5 mi West 8.1 mph - 0.59 in Rain Heavy Rain
3:26 PM 64.0 °F 61.0 °F 90% 29.95 in 6.0 mi North 8.1 mph - 0.20 in Rain Rain
3:58 PM 64.0 °F 61.0 °F 90% 29.93 in 6.0 mi NNE 9.2 mph - 0.29 in Rain Rain
4:00 PM 64.0 °F 61.0 °F 90% 29.93 in 6.0 mi NNE 8.1 mph - 0.01 in Rain Rain
4:09 PM 64.0 °F 61.0 °F 90% 29.92 in 8.0 mi NNE 9.2 mph - 0.03 in Rain Rain
4:36 PM 64.0 °F 61.0 °F 90% 29.94 in 1.5 mi NNE 9.2 mph - 0.12 in Rain Heavy Rain
4:51 PM 64.0 °F 61.0 °F 90% 29.94 in 0.8 mi NNW 8.1 mph - 0.55 in Rain Heavy Rain
4:58 PM 63.0 °F 61.0 °F 93% 29.94 in 0.8 mi NNE 5.8 mph - 0.76 in Rain Heavy Rain
5:05 PM 63.0 °F 61.0 °F 93% 29.94 in 0.8 mi NE 9.2 mph - 0.23 in Rain Heavy Rain
5:12 PM 63.0 °F 61.0 °F 93% 29.94 in 2.5 mi NE 8.1 mph - 0.28 in Rain Rain
5:22 PM 63.0 °F 61.0 °F 93% 29.93 in 2.5 mi NNE 10.4 mph - 0.30 in Rain Rain
5:58 PM 64.0 °F 61.0 °F 90% 29.92 in 2.5 mi NNE 6.9 mph - 0.40 in Rain Rain
6:30 PM 64.0 °F 61.0 °F 90% 29.93 in 2.5 mi NNE 6.9 mph - 0.08 in Rain Rain
6:37 PM 64.0 °F 61.0 °F 90% 29.93 in 2.5 mi North 8.1 mph - 0.10 in Rain Heavy Rain
6:55 PM 62.6 °F 60.8 °F 94% 29.93 in 6.0 mi NNE 6.9 mph - 0.19 in Rain Heavy Rain
6:56 PM 63.0 °F 61.0 °F 93% 29.93 in 6.0 mi NNE 8.1 mph - 0.19 in Rain Heavy Rain
7:06 PM 64.0 °F 61.0 °F 90% 29.94 in 5.0 mi NE 3.5 mph - 0.05 in Rain Heavy Rain
7:19 PM 63.0 °F 61.0 °F 93% 29.94 in 1.8 mi North 4.6 mph - 0.21 in Rain Heavy Rain
7:35 PM 63.0 °F 61.0 °F 93% 29.94 in 6.0 mi ENE 4.6 mph - 0.34 in Rain Rain
7:58 PM 63.0 °F 61.0 °F 93% 29.92 in 10.0 mi NNE 6.9 mph - 0.39 in Rain Rain
8:25 PM 64.0 °F 61.0 °F 90% 29.91 in 10.0 mi NE 8.1 mph - 0.02 in Rain Light Rain
8:58 PM 64.0 °F 61.0 °F 90% 29.91 in 10.0 mi NE 4.6 mph - 0.03 in Rain Light Rain
9:11 PM 64.0 °F 62.1 °F 93% 29.92 in 10.0 mi NE 3.5 mph - 0.02 in Rain Rain
9:39 PM 64.0 °F 62.1 °F 93% 29.91 in 10.0 mi NE 4.6 mph - 0.09 in Rain Light Rain
9:58 PM 64.0 °F 62.1 °F 93% 29.90 in 10.0 mi NE 3.5 mph - 0.09 in Rain Light Rain
10:58 PM 64.9 °F 62.1 °F 90% 29.88 in 10.0 mi NNE 5.8 mph - 0.18 in Rain Light Rain
11:58 PM 66.0 °F 64.0 °F 93% 29.86 in 10.0 mi Calm Calm - 0.00 in   Overcast